• In Germany
  • List of Countries
  • For 7 days
  • Water Temperature
  • Satellite Maps
  • Weather Map
  • Weather Widgets
  • user-avatar
    Login

    Hourly Weather Sherpur

    Today, 23 July, Sunday

    Time Temperature Precipitation Wind Pressure Humidity
    00:00 +24°C° 0 mm 1 mps 609 mmHg 29%
    01:00 +24°C° 0 mm 1 mps 608 mmHg 31%
    02:00 +23°C° 0 mm 1 mps 608 mmHg 33%
    03:00 +22°C° 0 mm 1 mps 608 mmHg 32%
    04:00 +22°C° 0 mm 1 mps 608 mmHg 32%
    05:00 +21°C° 0 mm 1 mps 607 mmHg 32%
    06:00 +23°C° 0 mm 1 mps 608 mmHg 28%
    07:00 +24°C° 0 mm 1 mps 609 mmHg 23%
    08:00 +26°C° 0 mm 1 mps 609 mmHg 19%
    09:00 +27°C° 0 mm 2 mps 609 mmHg 17%
    10:00 +28°C° 0 mm 2 mps 610 mmHg 15%
    11:00 +30°C° 0 mm 2 mps 610 mmHg 14%
    12:00 +31°C° 0 mm 2 mps 610 mmHg 13%
    13:00 +32°C° 0 mm 2 mps 610 mmHg 12%
    14:00 +34°C° 0 mm 2 mps 609 mmHg 11%
    15:00 +34°C° 0 mm 3 mps 609 mmHg 11%
    16:00 +34°C° 0 mm 3 mps 609 mmHg 11%
    17:00 +34°C° 0 mm 3 mps 609 mmHg 11%
    18:00 +33°C° 0 mm 3 mps 609 mmHg 13%
    19:00 +30°C° 0 mm 3 mps 609 mmHg 14%
    20:00 +29°C° 0 mm 3 mps 608 mmHg 16%
    21:00 +28°C° 0 mm 3 mps 608 mmHg 18%
    22:00 +26°C° 0 mm 2 mps 608 mmHg 20%
    23:00 +25°C° 0 mm 2 mps 608 mmHg 22%

    Tomorrow, 24 July, Monday

    Time Temperature Precipitation Wind Pressure Humidity
    00:00 +25°C° 0 mm 2 mps 608 mmHg 23%
    01:00 +24°C° 0 mm 1 mps 607 mmHg 25%
    02:00 +23°C° 0 mm 1 mps 607 mmHg 26%
    03:00 +22°C° 0 mm 1 mps 607 mmHg 26%
    04:00 +22°C° 0 mm 1 mps 606 mmHg 26%
    05:00 +21°C° 0 mm 1 mps 606 mmHg 27%
    06:00 +23°C° 0 mm 1 mps 607 mmHg 23%
    07:00 +25°C° 0 mm 1 mps 608 mmHg 20%
    08:00 +26°C° 0 mm 1 mps 608 mmHg 17%
    09:00 +27°C° 0 mm 1 mps 609 mmHg 15%
    10:00 +29°C° 0 mm 1 mps 609 mmHg 14%
    11:00 +30°C° 0 mm 1 mps 609 mmHg 12%
    12:00 +31°C° 0 mm 2 mps 609 mmHg 11%
    13:00 +32°C° 0 mm 2 mps 609 mmHg 10%
    14:00 +34°C° 0 mm 2 mps 609 mmHg 9%
    15:00 +34°C° 0 mm 2 mps 609 mmHg 9%
    16:00 +35°C° 0 mm 3 mps 609 mmHg 9%
    17:00 +35°C° 0 mm 3 mps 608 mmHg 9%
    18:00 +33°C° 0 mm 3 mps 608 mmHg 11%
    19:00 +31°C° 0 mm 3 mps 608 mmHg 13%
    20:00 +29°C° 0 mm 3 mps 608 mmHg 15%
    21:00 +28°C° 0 mm 2 mps 608 mmHg 16%
    22:00 +27°C° 0 mm 2 mps 608 mmHg 18%
    23:00 +26°C° 0 mm 2 mps 607 mmHg 20%

    Day after tomorrow, 25 July, Tuesday

    Time Temperature Precipitation Wind Pressure Humidity
    00:00 +25°C° 0 mm 2 mps 607 mmHg 21%
    01:00 +24°C° 0 mm 2 mps 607 mmHg 22%
    02:00 +24°C° 0 mm 2 mps 606 mmHg 23%
    03:00 +23°C° 0 mm 2 mps 606 mmHg 23%
    04:00 +23°C° 0 mm 2 mps 606 mmHg 24%
    05:00 +21°C° 0 mm 2 mps 605 mmHg 24%
    06:00 +24°C° 0 mm 2 mps 606 mmHg 21%
    07:00 +25°C° 0 mm 1 mps 607 mmHg 18%
    08:00 +27°C° 0 mm 1 mps 608 mmHg 15%
    09:00 +28°C° 0 mm 1 mps 608 mmHg 14%
    10:00 +29°C° 0 mm 1 mps 608 mmHg 12%
    11:00 +31°C° 0 mm 2 mps 609 mmHg 11%
    12:00 +32°C° 0 mm 2 mps 609 mmHg 10%
    13:00 +34°C° 0 mm 2 mps 609 mmHg 9%
    14:00 +35°C° 0 mm 2 mps 608 mmHg 8%
    15:00 +35°C° 0 mm 2 mps 608 mmHg 8%
    16:00 +35°C° 0 mm 3 mps 608 mmHg 8%
    17:00 +35°C° 0 mm 3 mps 608 mmHg 8%
    18:00 +34°C° 0 mm 3 mps 608 mmHg 10%
    19:00 +31°C° 0 mm 3 mps 608 mmHg 11%
    20:00 +30°C° 0 mm 2 mps 607 mmHg 13%
    21:00 +29°C° 0 mm 2 mps 607 mmHg 15%
    22:00 +27°C° 0 mm 2 mps 607 mmHg 17%
    23:00 +26°C° 0 mm 2 mps 607 mmHg 18%

    26 July, Wednesday

    Time Temperature Precipitation Wind Pressure Humidity
    00:00 +26°C° 0 mm 2 mps 607 mmHg 20%
    01:00 +25°C° 0 mm 1 mps 607 mmHg 21%
    02:00 +24°C° 0 mm 1 mps 606 mmHg 23%
    03:00 +23°C° 0 mm 1 mps 606 mmHg 23%
    04:00 +23°C° 0 mm 1 mps 606 mmHg 23%
    05:00 +22°C° 0 mm 1 mps 606 mmHg 23%
    06:00 +24°C° 0 mm 1 mps 607 mmHg 21%
    07:00 +26°C° 0 mm 1 mps 608 mmHg 18%
    08:00 +25°C° 0 mm 0 mps 609 mmHg 15%
    09:00 +29°C° 0 mm 1 mps 609 mmHg 13%
    10:00 +30°C° 0 mm 1 mps 609 mmHg 12%
    11:00 +31°C° 0 mm 1 mps 609 mmHg 10%
    12:00 +32°C° 0 mm 1 mps 609 mmHg 10%
    13:00 +34°C° 0 mm 2 mps 609 mmHg 9%
    14:00 +35°C° 0 mm 2 mps 609 mmHg 8%
    15:00 +35°C° 0 mm 2 mps 609 mmHg 8%
    16:00 +35°C° 0 mm 2 mps 609 mmHg 8%
    17:00 +36°C° 0 mm 3 mps 609 mmHg 8%
    18:00 +34°C° 0 mm 2 mps 609 mmHg 10%
    19:00 +32°C° 0 mm 2 mps 609 mmHg 11%
    20:00 +30°C° 0 mm 2 mps 609 mmHg 13%
    21:00 +29°C° 0 mm 2 mps 609 mmHg 15%
    22:00 +28°C° 0 mm 2 mps 609 mmHg 17%
    23:00 +27°C° 0 mm 2 mps 609 mmHg 19%

    27 July, Thursday

    Time Temperature Precipitation Wind Pressure Humidity
    00:00 +26°C° 0 mm 1 mps 609 mmHg 21%
    01:00 +26°C° 0 mm 1 mps 608 mmHg 22%
    02:00 +25°C° 0 mm 1 mps 608 mmHg 24%
    03:00 +24°C° 0 mm 1 mps 608 mmHg 25%
    04:00 +24°C° 0 mm 1 mps 608 mmHg 25%
    05:00 +23°C° 0 mm 1 mps 607 mmHg 26%
    06:00 +25°C° 0 mm 1 mps 608 mmHg 24%
    07:00 +27°C° 0 mm 1 mps 609 mmHg 21%
    08:00 +28°C° 0 mm 1 mps 610 mmHg 19%
    09:00 +30°C° 0 mm 1 mps 610 mmHg 16%
    10:00 +31°C° 0 mm 1 mps 611 mmHg 14%
    11:00 +32°C° 0 mm 2 mps 611 mmHg 11%
    12:00 +34°C° 0 mm 2 mps 611 mmHg 11%
    13:00 +35°C° 0 mm 2 mps 611 mmHg 10%
    14:00 +36°C° 0 mm 3 mps 611 mmHg 9%
    15:00 +36°C° 0 mm 3 mps 611 mmHg 9%
    16:00 +36°C° 0 mm 4 mps 611 mmHg 9%
    17:00 +37°C° 0 mm 4 mps 610 mmHg 9%
    18:00 +35°C° 0 mm 4 mps 610 mmHg 11%
    19:00 +33°C° 0 mm 3 mps 610 mmHg 13%
    20:00 +30°C° 0 mm 3 mps 610 mmHg 15%
    21:00 +29°C° 0 mm 3 mps 610 mmHg 17%
    22:00 +28°C° 0 mm 2 mps 609 mmHg 19%
    23:00 +27°C° 0 mm 2 mps 609 mmHg 21%

    28 July, Friday

    Time Temperature Precipitation Wind Pressure Humidity
    00:00 +26°C° 0 mm 2 mps 609 mmHg 23%
    01:00 +26°C° 0 mm 2 mps 609 mmHg 24%
    02:00 +25°C° 0 mm 2 mps 608 mmHg 25%
    03:00 +24°C° 0 mm 2 mps 608 mmHg 24%
    04:00 +24°C° 0 mm 2 mps 608 mmHg 24%
    05:00 +23°C° 0 mm 2 mps 608 mmHg 23%
    06:00 +25°C° 0 mm 2 mps 609 mmHg 20%
    07:00 +26°C° 0 mm 2 mps 610 mmHg 18%
    08:00 +28°C° 0 mm 2 mps 611 mmHg 15%
    09:00 +29°C° 0 mm 2 mps 611 mmHg 14%
    10:00 +31°C° 0 mm 2 mps 611 mmHg 12%
    11:00 +32°C° 0 mm 2 mps 612 mmHg 11%
    12:00 +34°C° 0 mm 3 mps 611 mmHg 10%
    13:00 +35°C° 0 mm 3 mps 611 mmHg 9%
    14:00 +36°C° 0 mm 3 mps 611 mmHg 9%
    15:00 +36°C° 0 mm 4 mps 611 mmHg 9%
    16:00 +36°C° 0 mm 4 mps 611 mmHg 9%
    17:00 +36°C° 0 mm 5 mps 611 mmHg 9%
    18:00 +34°C° 0 mm 4 mps 610 mmHg 11%
    19:00 +32°C° 0 mm 4 mps 610 mmHg 13%
    20:00 +30°C° 0 mm 4 mps 610 mmHg 15%
    21:00 +29°C° 0 mm 3 mps 610 mmHg 16%
    22:00 +28°C° 0 mm 3 mps 610 mmHg 18%
    23:00 +27°C° 0 mm 3 mps 610 mmHg 19%
    Show more